User: anonymous   Login
Location: Iola
(37.9240°N, 95.4000°W)
Time: 16:04:51
(UTC-05:00)
Language:

Meteor 2-10 Rocket - Orbit

View from above orbital plane
View from above orbital plane
View from above satellite
View from above satellite

Ground track
Ground track

The orbit data is extracted from the following two-line orbital elements,

1 14453U 83109B   15246.92942996 +.00000061 +00000-0 +19259-4 0  9993
2 14453 081.1660 042.4385 0105553 150.1478 210.5779 14.24612425654582
Epoch (UTC): 03 September 2015 22:18:22
Eccentricity: 0.0105553
inclination: 81.1660°
perigee height: 734 km
apogee height: 885 km
right ascension of ascending node: 42.4385°
argument of perigee: 150.1478°
revolutions per day: 14.24612425
mean anomaly at epoch: 210.5779°
orbit number at epoch: 65458

The dashed part of the orbit path shows where the satellite is in the earth's shadow,  

DLR